Find ESEO

NORAD ID: 43792 Int'l Des: 2018-099 Owner: ESA Country: I-ESA operational
LEOCIRCULARRETROGRADESSO

Live Position

Loading 3D Globe...

About ESEO

Description loading...

Upcoming Passes

Passes for default location (London). Set your location on the main map for personalized predictions.

Altitude History

Loading altitude history...

Two-Line Element Set

1 43792U 18099AL 26111.83415059 .00001012 00000-0 77201-4 0 9993
2 43792 97.4037 151.6267 0012862 157.1638 203.0163 15.04073432403332
Epoch: Apr 21, 2026 • Age: 6 hours

Current Status

Altitude 567.4 km
Velocity 7.57 km/s
Sub-Earth Point -8.00°S, 92.8°W
Launch Date Dec 3, 2018
Age 7.3 years
Type other

Technical Details

Classification Payload
Mass 120.00 kg
Dry Mass 120.00 kg
Total Mass 120.00 kg
Length 0.70 m
Diameter 0.60 m
Span 0.60 m
Shape Box
Manufacturer ESTEC/OHBI
Bus Type ESEO
Phase Status In Orbit
Owner/State ESA/I-ESA

Most Searched